User: anonymous   Login
Location: Canazei
(46.4667°N, 11.7667°E)
Time: 13:14:34
(UTC+00:00)
Language:

CZ-3B R/B - Orbit

View from above orbital plane
View from above orbital plane
View from above satellite
View from above satellite

Ground track
Ground track

The orbit data is extracted from the following two-line orbital elements,

1 43649U 18078C   21173.59660706  .00000806  00000-0  16656-3 0  9994
2 43649  54.8563 187.0468 5596600 133.5066 289.3774  4.62630148 44785
Epoch (UTC): 22 June 2021 14:19:06
Eccentricity: 0.5596600
inclination: 54.8563°
perigee height: 321 km
apogee height: 17350 km
right ascension of ascending node: 187.0468°
argument of perigee: 133.5066°
revolutions per day: 4.62630148
mean anomaly at epoch: 289.3774°
orbit number at epoch: 4478

The dashed part of the orbit path shows where the satellite is in the earth's shadow,  

DLR